STARLINK-33730, 63439

Orbit data source: Space-Track

STARLINK-33730, 63439 is a payload satellite owned by SpaceX/Seattle (US) in LEO that was launched on Fri, 04 Apr 2025 UTC via an FALCON 9 launch vehicle from the Air Force Western Test Range (AFWTR). Payload-class satellites include a variety of spacecraft equipped with specific instruments for various scientific and technological missions. These include communications satellites like Starlink; space stations such as the ISS; scientific satellites like the Hubble; Earth observation satellites from companies like Planet Labs, Umbra, and HawkEye 360; GPS; miniature CubeSats for education and research; and military/defense satellites.

Loading next visibility...
Identifier
63439, 2025-069G
Orbit
LEO
Country
Flag of USUS
Related business
Manufacturer
SpaceX/Seattle
Mission
Operational Commercial Communications
Bus & Motor
STARLINK V2MO, Unknown motor
Mass
575 kg wet, ~530 kg dry
Launch date (UTC)
2025-04-04 (1 year ago)
Launch vehicle
FALCON 9
Launch site
Air Force Western Test Range (AFWTR)
Object type
Payload
Rocket body
Debris
Shape & HBR
Box + 2 Pan, 17.7 m
Radar Cross Section
36.964 m², Large (>1 m²)

Expand to show TLE details & history
Last TLE update: 12 hours ago

TLE from 12 hours ago
0 STARLINK-33730
1 63439U 25069G   26145.29416594  .00032573  00000-0  75421-3 0  9997
2 63439  53.1584 143.7862 0001180  85.0880 275.0261 15.42182648 65176
Epoch: 2026-05-25T07:03Z
TLE epoch observation values (Epoch: 2026-05-25T07:03:35.937Z)
Latitude
0.00002°
Longitude
155.00245°
Altitude
440.503 km
Speed
7.649 km/s
True Right ascension
09h 35m 08s
True Declination
0° 00' 00"
Sunlit
Object was in daylight at epoch
Visualization orbit readout
Latitude
Unknown
Longitude
Unknown
Altitude
Unknown
Speed
Unknown
Apparent Right ascension
Unknown
Apparent Declination
Unknown
Sunlit
N/A
Visualization observer readout
Local Sidereal Time
03:51:01
Azimuth
Unknown
Elevation
Unknown
Doppler factor
Unknown
Orbital elements
Apogee altitude
440.731 km
Perigee altitude
439.122 km
Semi-major axis
6,818.064 km
Eccentricity
0.00012
Inclination
53.1584°
RAAN
143.7862°
Arg. of periapsis
85.088°
True anomaly
275.01263°
Mean anomaly
275.0261°
Eccentric anomaly
275.01937°
Mean motion
3.85524 °/min
Orbital period
93.38 mins
BSTAR
0.00075421
Loading maneuver chart data...
Computing Atmospheric mass density...
Loading historical data...
Loading historical data...
Loading historical data...
Loading historical data...
Loading historical data...
Loading historical data...
Loading historical data...

Documentation

Showing up to 5 results
|